星链-5678 (STARLINK-5678 )

导读

STARLINK-5678是美国太空探索技术公司(SpaceX)星链计划中的一颗卫星,于北京时间2023年2月2日8时发射入轨。星链计划旨在构建全球卫星互联网星座,为全球多地提供高速互联网接入服务,这颗卫星的入轨进一步扩充了星链星座的卫星规模,推进了星座全球覆盖的部署进程。

基本信息
目录编号:
55460
目录名称:
STARLINK-5678
国际标识:
2023-015M
轨道中心:
EARTH
卫星名称:
星链-5678
卫星全名:
星链-5678 (STARLINK-5678 )
卫星状态:
在轨 (已飞行1317 天)
发射日期:
2023-02-02 UTC
国别 :
美国 (US)
星等 :
--
该卫星已列入 空间交会检测服务 Space Conjunction Data Service (SCDS) ,当前飞行风险评估等级: 高风险
轨道信息
数据来源 国际轨道数据 AOE轨道数据
星历时间 2026-09-11T14:36:05+0800
12小时前
查看轨道信息
2026-09-10T08:00:00+0800
1天前
查看轨道信息
半长轴 6861.212km 6861.212km
偏心率 0.0001384 0.0000719
轨道倾角 43.004° 43.005°
近地点辐角 275.293° 169.682°
升交点赤经 0.743° 7.948°
平近点角 84.776° 10.262°
近地点 482.125km 482.581km
远地点 484.025km 483.569km
周期 94.267分钟 94.267分钟
每日圈数 15.275716 15.275715
详细信息
固有亮度:
5
最大亮度:
2.5
卫星平台:
Starlink v1.5
覆盖范围:
全球
运营商:
太空探索技术公司
运营商所在国:
美国
制造商(研发单位):
太空探索技术公司
制造商所在国:
美国
使用方式:
暂无
卫星简介
星链(Starlink)计划是由太空探索技术公司(SpaceX)提出的一个巨型低轨卫星互联网星座项目,计划在2019年至2024年间在太空搭建由约1.2万颗卫星组成的“星链”网络,其中1584颗将部署在地球上空550千米处的近地轨道,并从2020年开始工作。该卫星仍在工作。
2D轨道图
3D轨道图
轨道高度分析图
轨道倾角分析图
轨道综合分析图
查看轨道综合分析图
与全量物体交会距离演化趋势
与全量物体交会风险概率演化趋势